Regional Weather Roundup
Issued by NWS

Home | Current Version | Previous Version | Graphics & Text | Print | Product List | Glossary On
Versions: 1 2 3 4 5 6 7 8 9 10 11 12 13 14 15 16 17 18 19 20 21 22 23 24 25 26 27 28 29 30 31 32 33 34 35 36 37 38 39 40 41 42 43 44 45 46 47 48 49 50
000
ASUS43 KFSD 280902
RWRSD

WEATHER ROUNDUP FOR SOUTH DAKOTA
NATIONAL WEATHER SERVICE SIOUX FALLS SD
400 AM CDT FRI AUG 28 2015

NOTE: "FAIR" INDICATES FEW OR NO CLOUDS BELOW 12,000 FEET WITH NO
SIGNIFICANT WEATHER AND/OR OBSTRUCTIONS TO VISIBILITY.


SDZ001>005-009-010-012>017-281000-
NORTHWEST AND NORTH CENTRAL SOUTH DAKOTA

CITY           SKY/WX    TMP DP  RH WIND       PRES   REMARKS
BUFFALO          N/A     61  55  81 W5        29.91S
FAITH            N/A     63  59  87 SW3       29.95S
MOBRIDGE       CLOUDY    63  63 100 CALM      29.92R
$$

SDZ012>016-024>037-041>051-057-063-072>074-281000-
SOUTHWEST AND SOUTH CENTRAL SOUTH DAKOTA

CITY           SKY/WX    TMP DP  RH WIND       PRES   REMARKS
RAPID CTY ARPT CLEAR     57  54  89 CALM      29.98S
PIERRE         CLOUDY    68  67  96 NE3       29.91S
CUSTER         CLEAR     59  48  67 NW5       30.13S
ELLSWORTH AFB  CLEAR     61  56  86 W2        29.97S
PHILIP         PTCLDY    59  58  96 CALM      29.94R
PINE RIDGE     CLEAR     50  48  93 CALM      30.01S
WINNER         LGT RAIN  68  66  93 E7        29.88F
$$

SDZ004>011-016>023-039-040-281000-
NORTHEAST SOUTH DAKOTA

CITY           SKY/WX    TMP DP  RH WIND       PRES   REMARKS
ABERDEEN       FOG       60  58  92 S7        29.93S VSB 1/4
WATERTOWN      CLOUDY    66  63  90 S7        29.95R
BROOKINGS      CLOUDY    64  61  88 SE9       29.96R
$$

SDZ017-020-022-023-036>040-048>070-281000-
SOUTHEAST SOUTH DAKOTA

CITY           SKY/WX    TMP DP  RH WIND       PRES   REMARKS
SIOUX FALLS    CLOUDY    65  63  93 SE13      29.91F
HURON          CLOUDY    67  65  93 E5        29.92R
CHAMBERLAIN    RAIN      65  65  99 E6        29.90S
MITCHELL       CLOUDY    67  66  97 E7        29.90F
YANKTON        CLOUDY    64  63  94 E9        29.85S
$$

ABBREVIATIONS USED IN REMARKS
   TC - TEMPERATURE IN CELSIUS
  WCI - WIND CHILL INDEX
   HX - HEAT INDEX
  VSB - VISIBILITY




USA.gov is the U.S. government's official web portal to all federal, state and local government web resources and services.